Gwinner, ND

9:21 PM CDT on March 23, 2017 (GMT -0500)
Gwinner-melroe

Weather History for KGWR - September, 2012

Change the Weather History Date:

Thursday, September 20, 2012

  Actual Average (KP67) Record (KP67)
Temperature  
Mean Temperature 54 °F -  
Max Temperature 66 °F 68 °F 60 °F (1997)
Min Temperature 42 °F 44 °F 37 °F (1997)
Degree Days  
Heating Degree Days 11    
Growing Degree Days 4 (Base 50)    
Moisture  
Dew Point 32 °F    
Average Humidity 44    
Maximum Humidity 66    
Minimum Humidity 26    
Precipitation  
Precipitation 0.00 in - - ()
Sea Level Pressure  
Sea Level Pressure 29.94 in    
Wind  
Wind Speed 11 mph (WNW)    
Max Wind Speed 16 mph    
Max Gust Speed 23 mph    
Visibility 10 miles    
Events      
Averages and records for this station are not official NWS values.
T = Trace of Precipitation, MM = Missing Value Source: NWS Daily Summary

Daily Weather History Graph

Daily Weather History Graph

Search for Another Location

Airport or City:

Trip Planner

Search our weather history database for the weather conditions in past years. The results will help you decide how hot, cold, wet, or windy it might be!

Date:

Astronomy

Sep. 20, 2012 Rise Set
Actual Time 7:15 AM CDT 7:31 PM CDT
Civil Twilight 6:45 AM CDT 8:01 PM CDT
Nautical Twilight 6:10 AM CDT 8:36 PM CDT
Astronomical Twilight 5:33 AM CDT 9:12 PM CDT
Moon 12:55 PM CDT (9/20) 10:13 PM CDT (9/20)
Length of Visible Light 13h 15m
Length of Day
12h 15m
Waxing Crescent, 27% of the Moon is Illuminated
Sep 20
Waxing Crescent
Sep 22
First Quarter
Sep 29
Full
Oct 8
Last Quarter
Oct 15
New

Hourly Weather History & Observations

Time (CDT) Temp. Windchill Dew Point Humidity Pressure Visibility Wind Dir Wind Speed Gust Speed Precip Events Conditions
12:15 AM 50.0 °F - 30.2 °F 47% 29.94 in 10.0 mi West 12.7 mph - 0.00 in   Clear
12:35 AM 48.2 °F - 30.2 °F 50% 29.94 in 10.0 mi West 11.5 mph - 0.00 in   Clear
12:55 AM 48.2 °F - 30.2 °F 50% 29.95 in 10.0 mi WNW 13.8 mph - 0.00 in   Clear
1:15 AM 48.2 °F - 30.2 °F 50% 29.94 in 10.0 mi WNW 12.7 mph - 0.00 in   Clear
1:35 AM 46.4 °F 41.5 °F 30.2 °F 53% 29.94 in 10.0 mi West 10.4 mph - 0.00 in   Clear
1:55 AM 46.4 °F 41.9 °F 30.2 °F 53% 29.95 in 10.0 mi WNW 9.2 mph - 0.00 in   Clear
2:15 AM 46.4 °F 41.5 °F 30.2 °F 53% 29.95 in 10.0 mi WNW 10.4 mph - 0.00 in   Clear
2:35 AM 46.4 °F 41.5 °F 30.2 °F 53% 29.95 in 10.0 mi West 10.4 mph - 0.00 in   Clear
2:55 AM 46.4 °F 41.5 °F 30.2 °F 53% 29.96 in 10.0 mi West 10.4 mph - 0.00 in   Clear
3:15 AM 46.4 °F 41.5 °F 30.2 °F 53% 29.96 in 10.0 mi WNW 10.4 mph - 0.00 in   Clear
3:55 AM 48.2 °F - 30.2 °F 50% 29.95 in 10.0 mi WNW 11.5 mph - 0.00 in   Partly Cloudy
4:15 AM 48.2 °F - 30.2 °F 50% 29.95 in 10.0 mi NW 10.4 mph - 0.00 in   Clear
4:35 AM 48.2 °F - 30.2 °F 50% 29.95 in 10.0 mi NW 10.4 mph - 0.00 in   Clear
4:55 AM 46.4 °F 41.5 °F 30.2 °F 53% 29.96 in 10.0 mi WNW 10.4 mph - 0.00 in   Clear
5:15 AM 46.4 °F 40.7 °F 30.2 °F 53% 29.96 in 10.0 mi WNW 12.7 mph - 0.00 in   Clear
5:35 AM 46.4 °F 41.5 °F 32.0 °F 57% 29.97 in 10.0 mi West 10.4 mph - 0.00 in   Clear
5:55 AM 44.6 °F 39.2 °F 32.0 °F 61% 29.97 in 10.0 mi West 10.4 mph - 0.00 in   Clear
6:35 AM 44.6 °F 38.8 °F 32.0 °F 61% 29.98 in 10.0 mi WNW 11.5 mph - 0.00 in   Clear
6:55 AM 44.6 °F 38.8 °F 32.0 °F 61% 29.98 in 10.0 mi WNW 11.5 mph - 0.00 in   Clear
7:35 AM 42.8 °F 37.5 °F 32.0 °F 66% 30.00 in 10.0 mi West 9.2 mph - 0.00 in   Clear
8:15 AM 44.6 °F 40.2 °F 32.0 °F 61% 29.99 in 10.0 mi West 8.1 mph - 0.00 in   Clear
8:35 AM 46.4 °F 42.4 °F 32.0 °F 57% 29.99 in 10.0 mi WNW 8.1 mph - 0.00 in   Clear
8:55 AM 46.4 °F 41.5 °F 32.0 °F 57% 29.99 in 10.0 mi WNW 10.4 mph - 0.00 in   Clear
9:35 AM 51.8 °F - 32.0 °F 47% 30.00 in 10.0 mi WNW 9.2 mph - 0.00 in   Clear
9:55 AM 53.6 °F - 32.0 °F 44% 29.99 in 10.0 mi WNW 10.4 mph - 0.00 in   Clear
10:15 AM 55.4 °F - 33.8 °F 44% 29.99 in 10.0 mi WNW 10.4 mph - 0.00 in   Clear
10:55 AM 60.8 °F - 32.0 °F 34% 29.99 in 10.0 mi WNW 11.5 mph 16.1 mph 0.00 in   Clear
11:15 AM 60.8 °F - 32.0 °F 34% 29.99 in 10.0 mi WNW 11.5 mph - 0.00 in   Clear
11:35 AM 62.6 °F - 32.0 °F 32% 29.99 in 10.0 mi WNW 13.8 mph - 0.00 in   Clear
11:55 AM 62.6 °F - 32.0 °F 32% 29.99 in 10.0 mi WNW 16.1 mph - 0.00 in   Clear
12:15 PM 62.6 °F - 32.0 °F 32% 29.99 in 10.0 mi WNW 11.5 mph 19.6 mph 0.00 in   Clear
12:35 PM 62.6 °F - 32.0 °F 32% 29.98 in 10.0 mi WNW 13.8 mph 20.7 mph 0.00 in   Clear
12:55 PM 64.4 °F - 32.0 °F 30% 29.98 in 10.0 mi NW 11.5 mph 18.4 mph 0.00 in   Clear
1:15 PM 64.4 °F - 32.0 °F 30% 29.97 in 10.0 mi WNW 15.0 mph 23.0 mph 0.00 in   Clear
1:55 PM 64.4 °F - 32.0 °F 30% 29.96 in 10.0 mi West 16.1 mph 21.9 mph 0.00 in   Clear
2:15 PM 66.2 °F - 32.0 °F 28% 29.95 in 10.0 mi WNW 15.0 mph 23.0 mph 0.00 in   Clear
2:35 PM 66.2 °F - 32.0 °F 28% 29.94 in 10.0 mi WNW 11.5 mph 17.3 mph 0.00 in   Clear
2:55 PM 66.2 °F - 32.0 °F 28% 29.94 in 10.0 mi West 13.8 mph 21.9 mph 0.00 in   Clear
3:15 PM 66.2 °F - 32.0 °F 28% 29.93 in 10.0 mi West 15.0 mph 21.9 mph 0.00 in   Clear
3:55 PM 66.2 °F - 30.2 °F 26% 29.91 in 10.0 mi WNW 16.1 mph - 0.00 in   Clear
4:15 PM 66.2 °F - 32.0 °F 28% 29.91 in 10.0 mi NW 16.1 mph 20.7 mph 0.00 in   Clear
4:35 PM 64.4 °F - 32.0 °F 30% 29.91 in 10.0 mi WNW 13.8 mph 20.7 mph 0.00 in   Scattered Clouds
4:55 PM 64.4 °F - 32.0 °F 30% 29.90 in 10.0 mi WNW 12.7 mph 19.6 mph 0.00 in   Scattered Clouds
5:15 PM 64.4 °F - 32.0 °F 30% 29.90 in 10.0 mi WNW 12.7 mph - 0.00 in   Clear
5:35 PM 64.4 °F - 32.0 °F 30% 29.90 in 10.0 mi WNW 12.7 mph - 0.00 in   Clear
5:55 PM 64.4 °F - 32.0 °F 30% 29.90 in 10.0 mi West 13.8 mph - 0.00 in   Scattered Clouds
6:15 PM 62.6 °F - 32.0 °F 32% 29.90 in 10.0 mi West 13.8 mph 19.6 mph 0.00 in   Overcast
6:35 PM 62.6 °F - 32.0 °F 32% 29.90 in 10.0 mi West 12.7 mph - 0.00 in   Overcast
6:55 PM 60.8 °F - 33.8 °F 36% 29.90 in 10.0 mi West 9.2 mph - 0.00 in   Mostly Cloudy
7:15 PM 60.8 °F - 33.8 °F 36% 29.90 in 10.0 mi West 8.1 mph - 0.00 in   Mostly Cloudy
7:35 PM 57.2 °F - 33.8 °F 41% 29.89 in 10.0 mi West 5.8 mph - 0.00 in   Scattered Clouds
7:55 PM 55.4 °F - 33.8 °F 44% 29.90 in 10.0 mi West 6.9 mph - 0.00 in   Clear
8:35 PM 53.6 °F - 33.8 °F 47% 29.90 in 10.0 mi West 5.8 mph - 0.00 in   Scattered Clouds
8:55 PM 53.6 °F - 33.8 °F 47% 29.89 in 10.0 mi West 5.8 mph - 0.00 in   Scattered Clouds
9:15 PM 53.6 °F - 33.8 °F 47% 29.89 in 10.0 mi WSW 6.9 mph - 0.00 in   Mostly Cloudy
9:55 PM 53.6 °F - 35.6 °F 51% 29.88 in 10.0 mi West 5.8 mph - 0.00 in   Partly Cloudy
10:15 PM 53.6 °F - 35.6 °F 51% 29.89 in 10.0 mi WNW 4.6 mph - 0.00 in   Partly Cloudy
10:35 PM 53.6 °F - 39.2 °F 58% 29.88 in 10.0 mi Calm Calm - 0.00 in   Scattered Clouds
10:55 PM 53.6 °F - 33.8 °F 47% 29.88 in 10.0 mi West 4.6 mph - 0.00 in   Mostly Cloudy
11:15 PM 53.6 °F - 35.6 °F 51% 29.88 in 10.0 mi West 5.8 mph - 0.00 in   Overcast
11:35 PM 53.6 °F - 37.4 °F 54% 29.89 in 10.0 mi NNE 5.8 mph - 0.00 in   Mostly Cloudy
11:55 PM 53.6 °F - 37.4 °F 54% 29.88 in 10.0 mi Calm Calm - 0.00 in   Mostly Cloudy